Time,TemperatureF,DewpointF,PressureIn,WindDirection,WindDirectionDegrees,WindSpeedMPH,WindSpeedGustMPH,Humidity,HourlyPrecipIn,Conditions,Clouds,dailyrainin,SolarRadiationWatts/m^2,SoftwareType,DateUTC
2013-07-04 00:05:00,65.6,63.0,29.85,South,184,0.0,-999.0,90,-99.99,,,0.00,0,weatherlink.com 1.10,2013-07-04 07:05:00,
2013-07-04 00:20:00,65.5,63.0,29.85,South,191,1.0,-999.0,90,-99.99,,,0.00,0,weatherlink.com 1.10,2013-07-04 07:20:00,
2013-07-04 00:35:00,65.5,63.0,29.85,SSE,165,0.0,-999.0,90,-99.99,,,0.00,0,weatherlink.com 1.10,2013-07-04 07:35:00,
2013-07-04 00:50:00,65.4,63.0,29.85,South,177,0.0,-999.0,90,-99.99,,,0.00,0,weatherlink.com 1.10,2013-07-04 07:50:00,
2013-07-04 01:05:00,65.5,63.0,29.85,SE,143,0.0,-999.0,91,-99.99,,,0.00,0,weatherlink.com 1.10,2013-07-04 08:05:00,
2013-07-04 01:20:00,65.5,63.0,29.85,SE,143,0.0,-999.0,90,-99.99,,,0.00,0,weatherlink.com 1.10,2013-07-04 08:20:00,
2013-07-04 01:35:00,65.4,63.0,29.85,SW,217,0.0,-999.0,91,-99.99,,,0.00,0,weatherlink.com 1.10,2013-07-04 08:35:00,
2013-07-04 01:51:00,65.4,63.0,29.84,SW,217,0.0,-999.0,90,-99.99,,,0.00,0,weatherlink.com 1.10,2013-07-04 08:51:00,
2013-07-04 02:06:00,65.4,63.0,29.85,South,179,0.0,-999.0,91,-99.99,,,0.00,0,weatherlink.com 1.10,2013-07-04 09:06:00,
2013-07-04 02:21:00,65.3,63.0,29.84,South,191,0.0,-999.0,91,-99.99,,,0.00,0,weatherlink.com 1.10,2013-07-04 09:21:00,
2013-07-04 02:36:00,65.2,63.0,29.83,South,191,0.0,-999.0,91,-99.99,,,0.00,0,weatherlink.com 1.10,2013-07-04 09:36:00,
2013-07-04 02:51:00,65.2,63.0,29.82,SSE,150,0.0,-999.0,91,-99.99,,,0.00,0,weatherlink.com 1.10,2013-07-04 09:51:00,
2013-07-04 03:06:00,65.2,63.0,29.82,SSE,153,0.0,-999.0,91,-99.99,,,0.00,0,weatherlink.com 1.10,2013-07-04 10:06:00,
2013-07-04 03:21:00,65.1,63.0,29.82,SSE,153,0.0,-999.0,91,-99.99,,,0.00,0,weatherlink.com 1.10,2013-07-04 10:21:00,
2013-07-04 03:36:00,65.0,62.0,29.82,SE,144,0.0,-999.0,91,-99.99,,,0.00,0,weatherlink.com 1.10,2013-07-04 10:36:00,
2013-07-04 03:51:00,65.0,62.0,29.81,ENE,76,0.0,-999.0,91,-99.99,,,0.00,0,weatherlink.com 1.10,2013-07-04 10:51:00,
2013-07-04 04:06:00,64.7,62.0,29.80,East,79,0.0,-999.0,91,-99.99,,,0.00,0,weatherlink.com 1.10,2013-07-04 11:06:00,
2013-07-04 04:21:00,64.7,62.0,29.81,SE,134,0.0,-999.0,91,-99.99,,,0.00,0,weatherlink.com 1.10,2013-07-04 11:21:00,
2013-07-04 04:36:00,64.5,62.0,29.81,East,91,0.0,-999.0,91,-99.99,,,0.00,0,weatherlink.com 1.10,2013-07-04 11:36:00,
2013-07-04 04:51:00,64.4,62.0,29.81,East,100,0.0,-999.0,92,-99.99,,,0.00,0,weatherlink.com 1.10,2013-07-04 11:51:00,
2013-07-04 05:06:00,64.3,62.0,29.81,East,100,0.0,-999.0,92,-99.99,,,0.00,0,weatherlink.com 1.10,2013-07-04 12:06:00,
2013-07-04 05:21:00,64.3,62.0,29.81,ENE,58,0.0,-999.0,92,-99.99,,,0.00,0,weatherlink.com 1.10,2013-07-04 12:21:00,
2013-07-04 05:36:00,64.2,62.0,29.82,ENE,77,0.0,-999.0,92,-99.99,,,0.00,0,weatherlink.com 1.10,2013-07-04 12:36:00,
2013-07-04 05:51:00,64.1,62.0,29.82,ENE,77,0.0,-999.0,92,-99.99,,,0.00,0,weatherlink.com 1.10,2013-07-04 12:51:00,
2013-07-04 06:06:00,64.0,62.0,29.82,ENE,77,0.0,-999.0,92,-99.99,,,0.00,5,weatherlink.com 1.10,2013-07-04 13:06:00,
2013-07-04 06:21:00,64.0,62.0,29.82,ENE,77,0.0,-999.0,93,-99.99,,,0.00,9,weatherlink.com 1.10,2013-07-04 13:21:00,
2013-07-04 06:36:00,64.2,62.0,29.82,SE,125,0.0,-999.0,93,-99.99,,,0.00,18,weatherlink.com 1.10,2013-07-04 13:36:00,
2013-07-04 06:51:00,64.1,62.0,29.82,ESE,118,0.0,-999.0,92,-99.99,,,0.00,26,weatherlink.com 1.10,2013-07-04 13:51:00,
2013-07-04 07:06:00,64.3,62.0,29.82,ESE,118,0.0,-999.0,92,-99.99,,,0.00,39,weatherlink.com 1.10,2013-07-04 14:06:00,
2013-07-04 07:21:00,64.4,62.0,29.82,East,80,0.0,-999.0,92,-99.99,,,0.00,69,weatherlink.com 1.10,2013-07-04 14:21:00,
2013-07-04 07:36:00,64.7,62.0,29.83,East,80,0.0,-999.0,92,-99.99,,,0.00,100,weatherlink.com 1.10,2013-07-04 14:36:00,
2013-07-04 07:51:00,64.9,62.0,29.83,ENE,76,0.0,-999.0,91,-99.99,,,0.00,192,weatherlink.com 1.10,2013-07-04 14:51:00,
2013-07-04 08:06:00,66.2,64.0,29.84,ENE,60,0.0,-999.0,91,-99.99,,,0.00,343,weatherlink.com 1.10,2013-07-04 15:06:00,
2013-07-04 08:21:00,68.2,64.0,29.84,North,359,0.0,-999.0,87,-99.99,,,0.00,385,weatherlink.com 1.10,2013-07-04 15:21:00,
2013-07-04 08:36:00,69.6,64.0,29.84,West,259,0.0,-999.0,82,-99.99,,,0.00,434,weatherlink.com 1.10,2013-07-04 15:36:00,
2013-07-04 08:51:00,71.0,64.0,29.84,West,269,0.0,-999.0,78,-99.99,,,0.00,476,weatherlink.com 1.10,2013-07-04 15:51:00,
2013-07-04 09:06:00,72.3,64.0,29.84,West,268,0.0,-999.0,76,-99.99,,,0.00,522,weatherlink.com 1.10,2013-07-04 16:06:00,
2013-07-04 09:22:00,73.0,64.0,29.83,WNW,301,0.0,-999.0,73,-99.99,,,0.00,564,weatherlink.com 1.10,2013-07-04 16:22:00,
2013-07-04 09:37:00,74.6,65.0,29.83,NNE,21,0.0,-999.0,71,-99.99,,,0.00,608,weatherlink.com 1.10,2013-07-04 16:37:00,
2013-07-04 09:52:00,75.1,65.0,29.83,WSW,241,7.0,-999.0,70,-99.99,,,0.00,647,weatherlink.com 1.10,2013-07-04 16:52:00,
2013-07-04 10:07:00,75.6,65.0,29.83,West,266,0.0,-999.0,70,-99.99,,,0.00,680,weatherlink.com 1.10,2013-07-04 17:07:00,
2013-07-04 10:22:00,76.8,65.0,29.82,WNW,303,0.0,-999.0,68,-99.99,,,0.00,719,weatherlink.com 1.10,2013-07-04 17:22:00,
2013-07-04 10:37:00,78.7,66.0,29.82,WSW,258,0.0,-999.0,65,-99.99,,,0.00,751,weatherlink.com 1.10,2013-07-04 17:37:00,
2013-07-04 10:52:00,79.9,66.0,29.82,NW,308,0.0,-999.0,63,-99.99,,,0.00,780,weatherlink.com 1.10,2013-07-04 17:52:00,
2013-07-04 11:07:00,80.9,66.0,29.82,WNW,291,3.0,-999.0,61,-99.99,,,0.00,805,weatherlink.com 1.10,2013-07-04 18:07:00,
2013-07-04 11:22:00,81.7,65.0,29.83,NW,312,1.0,-999.0,58,-99.99,,,0.00,828,weatherlink.com 1.10,2013-07-04 18:22:00,
2013-07-04 11:37:00,81.5,66.0,29.83,WNW,282,0.0,-999.0,59,-99.99,,,0.00,842,weatherlink.com 1.10,2013-07-04 18:37:00,
2013-07-04 11:52:00,82.5,66.0,29.82,NW,321,0.0,-999.0,57,-99.99,,,0.00,858,weatherlink.com 1.10,2013-07-04 18:52:00,
2013-07-04 12:07:00,84.3,66.0,29.82,West,264,0.0,-999.0,54,-99.99,,,0.00,867,weatherlink.com 1.10,2013-07-04 19:07:00,
2013-07-04 12:22:00,83.9,65.0,29.82,West,274,0.0,-999.0,54,-99.99,,,0.00,877,weatherlink.com 1.10,2013-07-04 19:22:00,
2013-07-04 12:37:00,84.7,66.0,29.81,WNW,297,4.0,-999.0,53,-99.99,,,0.00,882,weatherlink.com 1.10,2013-07-04 19:37:00,
2013-07-04 12:52:00,86.1,66.0,29.80,NW,311,3.0,-999.0,51,-99.99,,,0.00,882,weatherlink.com 1.10,2013-07-04 19:52:00,
2013-07-04 13:07:00,86.3,66.0,29.80,NW,309,0.0,-999.0,51,-99.99,,,0.00,856,weatherlink.com 1.10,2013-07-04 20:07:00,
2013-07-04 13:22:00,86.5,66.0,29.79,WNW,297,0.0,-999.0,51,-99.99,,,0.00,870,weatherlink.com 1.10,2013-07-04 20:22:00,
2013-07-04 13:37:00,86.9,66.0,29.79,NNW,347,2.0,-999.0,50,-99.99,,,0.00,863,weatherlink.com 1.10,2013-07-04 20:37:00,
2013-07-04 13:52:00,87.5,66.0,29.78,NW,304,2.0,-999.0,49,-99.99,,,0.00,858,weatherlink.com 1.10,2013-07-04 20:52:00,
2013-07-04 14:08:00,87.9,66.0,29.78,WSW,242,0.0,-999.0,48,-99.99,,,0.00,835,weatherlink.com 1.10,2013-07-04 21:08:00,
2013-07-04 14:23:00,88.3,65.0,29.78,South,173,4.0,-999.0,46,-99.99,,,0.00,821,weatherlink.com 1.10,2013-07-04 21:23:00,
2013-07-04 14:38:00,88.6,65.0,29.78,ESE,105,0.0,-999.0,45,-99.99,,,0.00,796,weatherlink.com 1.10,2013-07-04 21:38:00,
2013-07-04 14:53:00,88.4,64.0,29.78,South,187,5.0,-999.0,45,-99.99,,,0.00,772,weatherlink.com 1.10,2013-07-04 21:53:00,
2013-07-04 15:08:00,87.6,64.0,29.78,East,96,3.0,-999.0,46,-99.99,,,0.00,742,weatherlink.com 1.10,2013-07-04 22:08:00,
2013-07-04 15:23:00,87.3,65.0,29.78,South,180,0.0,-999.0,47,-99.99,,,0.00,710,weatherlink.com 1.10,2013-07-04 22:23:00,
2013-07-04 15:38:00,86.8,65.0,29.77,South,173,4.0,-999.0,48,-99.99,,,0.00,673,weatherlink.com 1.10,2013-07-04 22:38:00,
2013-07-04 15:53:00,85.2,64.0,29.77,West,261,4.0,-999.0,49,-99.99,,,0.00,633,weatherlink.com 1.10,2013-07-04 22:53:00,
2013-07-04 16:08:00,84.8,64.0,29.77,South,174,3.0,-999.0,50,-99.99,,,0.00,596,weatherlink.com 1.10,2013-07-04 23:08:00,
2013-07-04 16:23:00,84.3,64.0,29.77,SSW,211,3.0,-999.0,50,-99.99,,,0.00,559,weatherlink.com 1.10,2013-07-04 23:23:00,
2013-07-04 16:38:00,83.2,64.0,29.77,SSE,148,4.0,-999.0,53,-99.99,,,0.00,513,weatherlink.com 1.10,2013-07-04 23:38:00,
2013-07-04 16:53:00,81.0,64.0,29.78,SE,134,7.0,-999.0,56,-99.99,,,0.00,471,weatherlink.com 1.10,2013-07-04 23:53:00,
2013-07-04 17:08:00,78.8,63.0,29.78,SE,142,8.0,-999.0,59,-99.99,,,0.00,425,weatherlink.com 1.10,2013-07-05 00:08:00,
2013-07-04 17:23:00,77.6,63.0,29.78,SSE,150,4.0,-999.0,61,-99.99,,,0.00,380,weatherlink.com 1.10,2013-07-05 00:23:00,
2013-07-04 17:38:00,77.2,63.0,29.78,SSW,204,5.0,-999.0,61,-99.99,,,0.00,338,weatherlink.com 1.10,2013-07-05 00:38:00,
2013-07-04 17:53:00,76.3,63.0,29.78,WSW,246,4.0,-999.0,63,-99.99,,,0.00,292,weatherlink.com 1.10,2013-07-05 00:53:00,
2013-07-04 18:08:00,74.5,62.0,29.79,SSW,213,3.0,-999.0,66,-99.99,,,0.00,248,weatherlink.com 1.10,2013-07-05 01:08:00,
2013-07-04 18:23:00,73.1,62.0,29.79,SSW,210,3.0,-999.0,69,-99.99,,,0.00,188,weatherlink.com 1.10,2013-07-05 01:23:00,
2013-07-04 18:38:00,71.3,62.0,29.80,WSW,240,4.0,-999.0,72,-99.99,,,0.00,84,weatherlink.com 1.10,2013-07-05 01:38:00,
2013-07-04 18:53:00,70.1,62.0,29.80,SW,217,1.0,-999.0,75,-99.99,,,0.00,62,weatherlink.com 1.10,2013-07-05 01:53:00,
2013-07-04 19:08:00,69.3,62.0,29.81,South,169,3.0,-999.0,77,-99.99,,,0.00,28,weatherlink.com 1.10,2013-07-05 02:08:00,
2013-07-04 19:23:00,68.7,62.0,29.81,SW,224,3.0,-999.0,78,-99.99,,,0.00,21,weatherlink.com 1.10,2013-07-05 02:23:00,
2013-07-04 19:38:00,68.0,62.0,29.82,SSW,205,3.0,-999.0,80,-99.99,,,0.00,14,weatherlink.com 1.10,2013-07-05 02:38:00,
2013-07-04 19:53:00,67.6,62.0,29.82,SW,214,1.0,-999.0,81,-99.99,,,0.00,7,weatherlink.com 1.10,2013-07-05 02:53:00,
2013-07-04 20:08:00,67.0,61.0,29.82,SSW,205,0.0,-999.0,82,-99.99,,,0.00,0,weatherlink.com 1.10,2013-07-05 03:08:00,
2013-07-04 20:23:00,66.5,61.0,29.82,SW,219,0.0,-999.0,83,-99.99,,,0.00,0,weatherlink.com 1.10,2013-07-05 03:23:00,
2013-07-04 20:38:00,66.3,61.0,29.82,SW,219,0.0,-999.0,83,-99.99,,,0.00,0,weatherlink.com 1.10,2013-07-05 03:38:00,
2013-07-04 20:53:00,66.3,61.0,29.82,SW,219,0.0,-999.0,83,-99.99,,,0.00,0,weatherlink.com 1.10,2013-07-05 03:53:00,
2013-07-04 21:08:00,66.2,61.0,29.83,SW,219,0.0,-999.0,83,-99.99,,,0.00,0,weatherlink.com 1.10,2013-07-05 04:08:00,
2013-07-04 21:23:00,65.9,61.0,29.84,SW,219,0.0,-999.0,83,-99.99,,,0.00,0,weatherlink.com 1.10,2013-07-05 04:23:00,
2013-07-04 21:38:00,65.8,61.0,29.84,SW,219,0.0,-999.0,83,-99.99,,,0.00,0,weatherlink.com 1.10,2013-07-05 04:38:00,
2013-07-04 21:53:00,65.7,60.0,29.84,SW,219,0.0,-999.0,83,-99.99,,,0.00,0,weatherlink.com 1.10,2013-07-05 04:53:00,
2013-07-04 22:08:00,66.1,61.0,29.85,SW,219,0.0,-999.0,84,-99.99,,,0.00,0,weatherlink.com 1.10,2013-07-05 05:08:00,
2013-07-04 22:23:00,66.2,61.0,29.85,SW,219,0.0,-999.0,84,-99.99,,,0.00,0,weatherlink.com 1.10,2013-07-05 05:23:00,
2013-07-04 22:38:00,66.3,61.0,29.85,SW,219,0.0,-999.0,84,-99.99,,,0.00,0,weatherlink.com 1.10,2013-07-05 05:38:00,
2013-07-04 22:53:00,66.5,62.0,29.85,SSE,163,0.0,-999.0,84,-99.99,,,0.00,0,weatherlink.com 1.10,2013-07-05 05:53:00,
2013-07-04 23:08:00,66.5,62.0,29.85,SE,137,0.0,-999.0,84,-99.99,,,0.00,0,weatherlink.com 1.10,2013-07-05 06:08:00,
2013-07-04 23:23:00,66.5,62.0,29.85,East,82,0.0,-999.0,84,-99.99,,,0.00,0,weatherlink.com 1.10,2013-07-05 06:23:00,
2013-07-04 23:38:00,66.5,62.0,29.84,East,82,0.0,-999.0,84,-99.99,,,0.00,0,weatherlink.com 1.10,2013-07-05 06:38:00,
2013-07-04 23:53:00,66.5,62.0,29.84,ENE,62,0.0,-999.0,84,-99.99,,,0.00,0,weatherlink.com 1.10,2013-07-05 06:53:00,